Regional Weather Roundup
Issued by NWS

Home | Current Version | Previous Version | Graphics & Text | Print | Product List | Glossary On
Versions: 1 2 3 4 5 6 7 8 9 10 11 12 13 14 15 16 17 18 19 20 21 22 23 24 25 26 27 28 29 30 31 32 33 34 35 36 37 38 39 40 41 42 43 44 45 46 47 48 49 50
000
ASUS43 KDMX 180107
RWRIA

WEATHER ROUNDUP FOR IOWA
NATIONAL WEATHER SERVICE DES MOINES IA
800 PM CDT WED SEP 17 2014

NOTE: "FAIR" INDICATES FEW OR NO CLOUDS BELOW 12,000 FEET WITH NO
SIGNIFICANT WEATHER AND/OR OBSTRUCTIONS TO VISIBILITY.

* - THESE STATIONS ARE NOT NWS STATIONS...THUS NOT UNDER NWS
QUALITY CONTROL.  THEY ALSO DO NOT REPORT WEATHER SUCH
AS PRECIPITATION OR FOG.

IAZ001>003-012>014-020>022-031>034-043>046-180200-
   NORTHWEST IOWA

CITY           SKY/WX    TMP DP  RH WIND       PRES   REMARKS
CARROLL *      CLEAR     61  57  88 CALM      29.94S
CHEROKEE *     PTCLDY    66  57  72 E5        29.94R
DENISON *      CLEAR     64  59  82 E6        29.92R
LE MARS *      CLEAR     70  61  73 SE6       29.93R
ORANGE CITY *  PTCLDY    70  57  64 CALM      29.94R
SHELDON *      CLEAR     63  59  88 SE5       29.93R
SIOUX CITY     CLEAR     71  58  63 E5        29.92R
SPENCER        PTCLDY    65  57  75 E3        29.95R
STORM LAKE *   CLEAR     61  59  94 E5        29.95R
$$

IAZ055>058-069>071-079>083-090>094-180200-
   SOUTHWEST IOWA

CITY           SKY/WX    TMP DP  RH WIND       PRES   REMARKS
ATLANTIC *     CLEAR     68  61  77 CALM      29.92R
AUDUBON *      CLEAR     63  55  77 CALM      29.95R
CLARINDA *     CLEAR     64  61  88 CALM      29.93R
COUNCIL BLFS * CLEAR     70  64  83 E6        29.91R
CRESTON *      CLEAR     63  59  88 E7        29.94R
HARLAN  *      CLEAR     66  61  82 CALM      29.96S
LAMONI         CLEAR     66  60  81 E6        29.94R
SHENANDOAH *   CLEAR     68  63  83 CALM      29.92R
$$

IAZ047>049-059>061-072>074-084-180200-
   CENTRAL IOWA

CITY           SKY/WX    TMP DP  RH WIND       PRES   REMARKS
AMES           PTCLDY    61  57  87 CALM      29.95R
ANKENY *       CLEAR     63  59  88 CALM      29.94S
CHARITON *     CLEAR     64  59  82 SE3       29.95R
DES MOINES     PTCLDY    70  56  61 E5        29.94R
GRINNELL*      CLEAR     61  55  82 E5        29.97R
KNOXVILLE *    CLEAR     66  59  77 E3        29.94R
MARSHALLTOWN   CLEAR     61  54  77 E3        29.95S
PELLA *        PTCLDY    64  57  77 CALM      29.96R
PERRY *          N/A     63  57  82 E3        29.94S
$$

IAZ004>006-015-016-023>025-035-036-180200-
   NORTH CENTRAL IOWA

CITY           SKY/WX    TMP DP  RH WIND       PRES   REMARKS
ALGONA *       CLOUDY    64  61  88 SE3       29.96R
CLARION *        N/A     61  54  77 SE6       29.96R
ESTHERVILLE    CLOUDY    66  58  75 CALM      29.95R
FORT DODGE *   PTCLDY    63  54  72 SE3       29.96R
MASON CITY     CLEAR     57  52  83 SE3       29.98R
FOREST CITY *  CLOUDY    61  55  82 CALM      29.97R
IOWA FALLS *     N/A     61  54  77 CALM      29.97R
$$

IAZ007>011-017>019-026>030-037>042-050>054-066-180200-
   NORTHEAST IOWA

CITY           SKY/WX    TMP DP  RH WIND       PRES   REMARKS
CEDAR RAPIDS   CLEAR     59  54  83 E6        29.96R
CHARLES CITY * PTCLDY    61  52  72 E5        29.98R
CLINTON *      CLEAR     57  52  82 E5        30.00S
DECORAH *      CLEAR     61  52  72 SE3       29.98R
DUBUQUE        CLEAR     57  52  83 E3        29.99R
MONTICELLO *   CLEAR     57  55  94 CALM      29.97R
OELWEIN *      CLEAR     61  52  72 E3        29.98R
WATERLOO       CLEAR     61  51  70 CALM      29.96R
$$

IAZ064-065-067-068-078-180200-
   EAST CENTRAL IOWA

CITY           SKY/WX    TMP DP  RH WIND       PRES   REMARKS
DAVENPORT      CLEAR     58  48  69 E3        29.98R
IOWA CITY      CLEAR     61  55  81 CALM      29.98R
MT. PLEASANT * CLEAR     59  54  82 E5        29.97R
MUSCATINE *    CLEAR     59  55  88 NW3       29.98R
QUAD CITIES    CLEAR     56  52  86 CALM      29.97R
$$

IAZ062-063-075>077-085>089-095>099-180200-
   SOUTHEAST IOWA

CITY           SKY/WX    TMP DP  RH WIND       PRES   REMARKS
BURLINGTON     CLEAR     62  54  74 E3        29.98R
FAIRFIELD *    CLEAR     59  55  88 CALM      29.96R
FORT MADISON * CLEAR     61  55  82 CALM      29.99R
KEOKUK *       CLEAR     61  57  88 SE5       29.97R
OSKALOOSA *      N/A     61  57  88 E6        29.96R
CENTERVILLE *  CLEAR     61  61 100 E5        29.97R
OTTUMWA        CLEAR     62  56  80 E6        29.95R
WASHINGTON *   CLEAR     59  57  94 E6        29.97R
$$

ABBREVIATIONS USED IN REMARKS
   TC - TEMPERATURES IN CELSIUS
  WCI - WIND CHILL INDEX
   HX - HEAT INDEX
  VSB - VISIBILITY
$$



USA.gov is the U.S. government's official web portal to all federal, state and local government web resources and services.